Hourly Weather Dzierzaznik

Today, 6 May, Thursday

Time Temperature Precipitation Wind Pressure Humidity
00:00 +3°C° 0 mm 6 mps 737 mmHg 87%
01:00 +2°C° 0 mm 7 mps 738 mmHg 87%
02:00 +2°C° 0 mm 6 mps 738 mmHg 88%
03:00 +1°C° 0 mm 6 mps 739 mmHg 89%
04:00 +1°C° 0 mm 6 mps 739 mmHg 89%
05:00 +2°C° 0 mm 6 mps 739 mmHg 84%
06:00 +3°C° 0 mm 6 mps 740 mmHg 78%
07:00 +4°C° 0 mm 7 mps 740 mmHg 72%
08:00 +5°C° 0 mm 7 mps 740 mmHg 65%
09:00 +6°C° 0 mm 7 mps 740 mmHg 59%
10:00 +9°C° 0 mm 7 mps 740 mmHg 52%
11:00 +10°C° 0 mm 7 mps 740 mmHg 50%
12:00 +10°C° 0 mm 7 mps 740 mmHg 48%
13:00 +11°C° 0 mm 7 mps 739 mmHg 46%
14:00 +11°C° 0.2 mm 7 mps 739 mmHg 54%
15:00 +10°C° 0.2 mm 7 mps 739 mmHg 62%
16:00 +9°C° 0.2 mm 7 mps 738 mmHg 70%
17:00 +9°C° 0.1 mm 6 mps 738 mmHg 71%
18:00 +8°C° 0.1 mm 6 mps 738 mmHg 73%
19:00 +8°C° 0.1 mm 5 mps 737 mmHg 75%
20:00 +7°C° 0.3 mm 6 mps 737 mmHg 79%
21:00 +7°C° 0.3 mm 6 mps 738 mmHg 84%
22:00 +5°C° 0.3 mm 7 mps 738 mmHg 88%
23:00 +5°C° 0.5 mm 6 mps 737 mmHg 89%

Tomorrow, 7 May, Friday

Time Temperature Precipitation Wind Pressure Humidity
00:00 +6°C° 0.5 mm 5 mps 737 mmHg 89%
01:00 +6°C° 0.5 mm 4 mps 737 mmHg 90%
02:00 +6°C° 0.2 mm 4 mps 737 mmHg 91%
03:00 +7°C° 0.2 mm 3 mps 737 mmHg 91%
04:00 +7°C° 0.2 mm 3 mps 737 mmHg 92%
05:00 +7°C° 0.1 mm 3 mps 737 mmHg 91%
06:00 +7°C° 0.1 mm 3 mps 738 mmHg 90%
07:00 +6°C° 0.1 mm 4 mps 738 mmHg 90%
08:00 +6°C° 0.5 mm 4 mps 739 mmHg 89%
09:00 +5°C° 0.5 mm 4 mps 740 mmHg 88%
10:00 +5°C° 0.5 mm 3 mps 740 mmHg 87%
11:00 +6°C° 0.3 mm 4 mps 741 mmHg 83%
12:00 +6°C° 0.3 mm 4 mps 741 mmHg 79%
13:00 +7°C° 0.3 mm 4 mps 742 mmHg 75%
14:00 +9°C° 0.1 mm 3 mps 742 mmHg 70%
15:00 +9°C° 0.1 mm 3 mps 742 mmHg 65%
16:00 +10°C° 0.1 mm 3 mps 743 mmHg 60%
17:00 +9°C° 0 mm 3 mps 743 mmHg 65%
18:00 +8°C° 0 mm 2 mps 743 mmHg 71%
19:00 +7°C° 0 mm 2 mps 743 mmHg 77%
20:00 +6°C° 0 mm 2 mps 743 mmHg 80%
21:00 +5°C° 0 mm 2 mps 744 mmHg 83%
22:00 +5°C° 0 mm 2 mps 744 mmHg 87%
23:00 +5°C° 0 mm 2 mps 744 mmHg 87%

Day after tomorrow, 8 May, Saturday

Time Temperature Precipitation Wind Pressure Humidity
00:00 +5°C° 0 mm 2 mps 743 mmHg 88%
01:00 +5°C° 0 mm 2 mps 743 mmHg 89%
02:00 +4°C° 0 mm 3 mps 743 mmHg 87%
03:00 +4°C° 0 mm 3 mps 742 mmHg 86%
04:00 +4°C° 0 mm 3 mps 742 mmHg 84%
05:00 +5°C° 0.3 mm 3 mps 742 mmHg 87%
06:00 +5°C° 0.3 mm 4 mps 741 mmHg 90%
07:00 +6°C° 0.3 mm 4 mps 741 mmHg 92%
08:00 +6°C° 0.2 mm 5 mps 740 mmHg 91%
09:00 +7°C° 0.2 mm 5 mps 740 mmHg 89%
10:00 +8°C° 0.2 mm 6 mps 739 mmHg 87%
11:00 +11°C° 0 mm 6 mps 739 mmHg 80%
12:00 +14°C° 0 mm 7 mps 739 mmHg 73%
13:00 +17°C° 0 mm 7 mps 738 mmHg 66%
14:00 +17°C° 0 mm 7 mps 738 mmHg 69%
15:00 +17°C° 0 mm 6 mps 738 mmHg 72%
16:00 +16°C° 0 mm 6 mps 737 mmHg 74%
17:00 +16°C° 0 mm 6 mps 737 mmHg 76%
18:00 +16°C° 0 mm 6 mps 737 mmHg 78%
19:00 +16°C° 0 mm 6 mps 737 mmHg 80%
20:00 +15°C° 0 mm 6 mps 736 mmHg 81%
21:00 +15°C° 0 mm 6 mps 736 mmHg 82%
22:00 +15°C° 0 mm 6 mps 736 mmHg 84%
23:00 +14°C° 0 mm 6 mps 735 mmHg 84%

9 May, Sunday

Time Temperature Precipitation Wind Pressure Humidity
00:00 +13°C° 0 mm 5 mps 735 mmHg 85%
01:00 +13°C° 0 mm 5 mps 735 mmHg 86%

10 May, Monday

Time Temperature Precipitation Wind Pressure Humidity

11 May, Tuesday

Time Temperature Precipitation Wind Pressure Humidity
Show more

We Need Your Consent

Meteoprog and our Service Providers may store and access personal data such as cookies, device identifiers or other similar technologies on your device and process such data to personalise content and ads, as well as provide social media features and to analyse the traffic.

  • Store and/or access information on your device

    Cookies, device identifiers or other information can be stored or accessed on your device for the purposes indicated above.

  • Personalised ads and content, ad and content measurement, audience insights, and products development

    Ads and content can be personalised based on a profile. More data can be added to better personalise ads and content. Ad and content performance can be measured. Insights about the audience who saw the ads and content can be derived. Such data can be used to develop or improve user’s experience, systems and software.

By clicking ‘I Agree’ you will allow the use of indicated cookies, device identifiers, web beacons or other similar technologies. Your settings can be changed in the browser on your device.

For certain purposes, legitimate interests may be relied on, rather than consent. You can read more about this in our Privacy and Cookie Policy.